Theta_e
317 317 317 317 317 317 317 318 318 318 319 320 320 320 321 321 321 322 322 322 322 321 321 321 321 321 322 321 322 322 320 326 326 324 323 326 332 351 349 345 357 362 364 357 349 345 339 340 337 343 342 339 337 335 341 341 342 338 327 321 317 318 317 321 320 321 324 321 326 328 330 328 326 330 334 337 333 331 332 333 334 339 338 343 345 347 348 349
317 316 316 317 317 317 317 317 317 318 318 319 320 320 320 320 321 321 321 321 321 321 321 321 321 321 321 321 321 321 322 326 323 324 324 332 346 350 351 346 358 361 362 346 343 338 336 335 337 339 338 332 339 330 340 334 340 331 326 323 317 319 321 324 324 325 323 323 327 329 330 329 328 329 332 328 328 330 329 332 335 334 341 345 346 347 347 348
316 316 316 316 316 316 317 317 317 318 318 319 319 320 319 320 320 320 320 320 320 320 320 320 321 321 321 321 321 320 323 324 324 323 327 347 356 351 349 349 357 361 352 340 339 337 335 335 338 336 334 328 330 328 332 332 334 333 326 321 321 324 323 325 325 325 326 327 327 329 330 330 330 331 333 327 328 329 327 329 331 334 337 341 344 346 346 346
316 316 316 316 316 316 316 317 317 317 318 318 319 319 319 319 320 320 319 319 319 320 320 320 320 321 321 321 321 324 325 325 316 321 335 351 355 351 349 346 353 360 346 336 335 333 334 337 337 334 328 323 326 327 325 333 327 330 326 320 321 325 322 324 326 327 327 328 328 329 331 329 331 333 330 329 326 326 328 332 331 333 338 341 343 345 345 345
316 315 315 316 316 316 316 316 317 317 317 318 318 318 319 319 319 319 319 319 319 319 319 319 320 321 321 320 318 326 326 311 312 323 339 351 356 350 350 347 355 354 340 333 331 330 331 333 332 329 326 317 320 322 323 330 330 329 325 325 325 326 323 326 326 327 328 329 329 330 328 328 334 334 330 330 324 322 327 332 333 336 340 341 342 344 346 345
315 315 315 315 315 316 316 316 316 317 317 318 317 318 318 318 318 318 318 318 318 319 319 320 320 321 320 320 322 327 320 301 316 325 357 353 355 352 351 355 358 346 336 330 327 326 328 331 329 324 322 317 315 315 320 325 332 321 325 326 327 327 324 326 327 327 328 328 328 328 330 333 331 330 331 330 326 328 331 333 334 338 341 343 344 345 344 344
315 315 315 315 315 315 316 315 316 316 316 316 317 317 317 317 317 317 317 317 318 318 319 320 321 320 320 319 323 321 315 315 320 333 358 358 354 354 352 357 361 342 330 325 324 322 324 327 324 321 319 315 316 316 319 322 330 325 321 325 325 327 325 327 325 327 328 328 328 331 333 331 330 325 331 329 328 332 334 335 336 340 342 343 343 344 343 344
314 314 314 314 314 315 315 315 315 315 316 316 316 317 317 317 317 317 317 317 317 319 319 320 320 320 320 323 324 318 315 314 320 333 358 358 355 355 353 337 340 335 327 321 322 319 321 323 320 320 316 313 316 316 319 320 325 322 321 324 324 325 326 327 326 327 328 329 331 332 329 330 330 328 331 329 330 333 334 338 340 341 341 342 342 343 344 345
314 314 314 314 314 314 314 315 315 316 315 316 316 316 316 316 316 316 317 317 318 318 319 320 320 320 322 325 318 312 312 320 325 337 340 339 342 348 343 334 334 330 324 322 322 321 319 319 321 319 313 314 318 316 319 317 316 322 322 324 324 324 324 324 325 326 327 329 331 329 329 331 331 334 329 331 331 336 338 340 340 340 340 340 341 343 345 346
314 314 314 314 314 314 314 314 315 315 315 316 316 315 315 316 315 316 316 317 318 319 319 321 320 321 321 324 318 309 317 324 332 334 334 333 333 339 339 337 335 329 322 321 322 320 317 318 320 321 319 317 318 316 319 317 316 322 322 322 322 322 320 322 322 325 328 329 331 328 327 328 332 331 324 332 334 339 339 339 340 339 338 339 341 342 345 346
313 313 313 313 314 314 314 314 315 315 315 315 315 315 315 315 315 315 316 317 318 319 321 321 321 320 322 324 313 310 323 323 331 334 333 332 325 323 324 328 336 328 324 322 321 322 321 320 322 321 319 316 317 316 317 318 321 319 320 320 320 320 321 322 323 324 328 327 332 329 326 331 333 330 325 331 336 339 338 338 338 338 339 339 341 342 347 347
313 313 313 313 313 313 314 314 314 314 315 315 314 314 315 315 315 315 316 317 319 321 321 322 321 324 326 320 316 316 325 325 330 331 331 327 324 325 325 328 333 330 326 322 322 323 322 321 321 319 312 318 314 317 317 321 319 319 319 316 319 321 319 323 322 324 328 328 332 330 329 328 329 325 328 334 338 338 338 338 337 337 338 340 341 343 347 347
313 313 313 313 313 313 313 313 314 314 314 314 314 314 314 315 315 315 317 318 321 321 322 322 322 326 325 316 319 326 328 329 328 326 326 328 327 327 327 328 330 331 328 324 322 323 323 322 321 317 317 318 316 313 319 321 319 319 319 317 318 319 318 323 325 327 327 330 331 331 315 319 325 329 330 337 337 337 337 337 337 337 338 339 341 342 347 347
313 313 313 313 313 313 313 313 313 313 313 313 313 313 313 313 314 316 318 320 322 321 322 323 326 326 325 316 321 327 328 329 328 326 327 330 327 325 327 328 329 329 328 325 324 324 323 324 321 318 319 317 316 322 318 318 319 314 317 318 315 314 314 323 324 327 324 331 330 330 314 316 322 328 333 338 338 335 335 336 336 337 338 339 340 342 344 346
312 312 312 313 313 313 313 313 312 312 313 312 312 312 312 313 315 317 321 324 321 322 324 325 328 326 319 319 327 332 337 330 325 326 330 326 325 323 324 327 325 325 325 325 323 323 324 323 321 317 316 320 320 316 314 317 318 317 315 312 315 313 316 322 326 326 321 329 333 327 316 317 321 327 336 338 337 336 335 336 336 337 338 340 341 342 343 344
312 311 312 312 312 312 312 312 312 312 312 312 311 311 313 314 317 320 323 325 323 324 328 327 326 325 317 312 320 338 336 323 324 328 329 327 324 322 325 324 325 323 323 322 324 323 323 321 317 317 316 317 315 313 313 313 315 317 315 312 312 314 317 320 323 327 327 329 330 325 316 319 320 329 336 338 337 335 334 335 337 337 339 340 341 342 343 343
312 311 311 312 312 312 313 312 312 312 311 311 311 312 313 315 317 324 325 325 326 327 328 327 326 326 310 322 325 319 319 324 327 326 327 327 324 324 324 323 321 321 322 322 321 320 319 317 318 317 318 314 314 313 309 309 311 313 316 312 315 313 315 315 323 326 327 328 323 326 320 320 324 330 336 337 336 335 333 334 337 338 339 341 342 341 342 343
311 311 311 311 312 312 312 312 311 311 311 310 310 311 313 314 318 323 324 327 329 328 329 330 328 322 317 322 313 314 322 322 322 322 322 324 326 324 323 320 321 320 319 317 319 314 317 313 315 310 312 312 312 311 307 305 309 311 313 311 312 315 315 314 317 323 325 326 323 324 322 320 326 331 334 336 336 335 334 334 336 337 338 340 341 341 342 344
311 311 311 311 312 311 312 312 311 311 310 310 311 315 315 317 322 327 327 326 323 325 313 318 318 306 306 312 320 319 318 321 321 320 318 322 325 325 323 323 322 318 313 312 312 314 314 312 313 309 306 307 309 311 310 313 315 314 315 313 313 311 313 314 319 325 326 324 321 322 320 320 322 330 333 335 336 335 335 336 336 337 339 341 341 341 341 344
311 311 311 311 311 312 312 311 311 310 309 310 314 316 320 323 318 320 323 324 315 311 311 311 320 317 315 314 314 321 321 321 315 318 319 323 322 320 319 320 318 318 313 308 310 312 313 306 305 305 307 309 311 313 314 316 317 316 316 315 313 313 314 317 319 324 328 324 321 321 322 322 322 327 333 335 336 335 335 335 336 337 338 339 340 341 341 344
311 311 311 311 311 312 311 311 310 310 309 312 312 313 307 307 302 304 306 308 311 313 311 311 311 311 312 314 316 315 312 314 318 317 319 325 321 319 315 317 315 311 312 311 310 313 312 305 306 308 310 311 312 314 315 316 317 316 315 314 313 314 312 317 318 325 328 321 319 322 321 322 324 327 331 336 335 333 333 334 336 337 338 339 341 341 342 344
310 311 311 311 311 310 311 310 310 309 309 313 314 309 308 306 308 309 308 303 309 311 311 311 312 310 313 313 315 316 314 310 312 316 321 323 320 315 315 314 312 309 313 311 311 308 305 303 307 310 312 313 313 313 314 314 314 315 314 314 313 313 316 320 322 326 327 323 318 322 320 321 324 327 332 334 335 336 336 336 336 338 338 339 340 342 343 344
311 311 311 311 310 310 310 309 309 308 313 311 309 310 308 311 312 312 307 303 303 310 309 310 309 309 310 314 316 317 309 308 308 314 317 320 318 316 315 312 311 311 312 311 306 305 302 305 309 312 311 311 311 312 312 314 314 313 313 312 311 314 313 312 320 324 326 323 318 321 319 322 326 328 330 334 335 337 338 338 338 340 340 339 340 342 343 343
311 311 311 310 310 309 309 308 307 313 313 309 309 309 312 313 312 311 307 303 303 308 310 312 311 311 311 311 317 314 311 312 312 312 320 318 315 318 316 313 311 311 310 309 308 305 304 308 312 311 311 310 309 310 311 311 310 313 313 313 312 313 315 315 317 322 325 326 324 320 318 320 322 322 324 332 335 334 336 337 339 341 342 343 342 343 344 343
311 311 311 310 309 309 307 306 312 312 311 311 310 313 314 313 313 312 305 305 306 308 314 313 313 313 315 321 318 313 314 314 314 316 319 318 316 315 313 317 314 309 311 311 309 307 306 310 311 310 310 310 309 308 309 310 309 311 314 315 315 315 315 317 317 318 317 317 323 319 312 312 320 321 322 327 331 331 335 335 337 339 341 342 341 342 343 344
311 311 311 310 310 309 307 309 314 310 308 308 311 313 315 313 313 313 307 302 298 306 309 308 315 311 321 314 316 315 315 309 317 317 320 319 322 316 315 312 314 308 311 310 308 308 308 311 310 308 308 308 307 307 310 311 309 309 311 317 316 316 315 317 315 316 312 310 319 323 311 308 317 317 321 324 325 330 334 334 335 339 341 341 341 342 342 342
311 311 311 310 310 307 306 303 310 310 306 307 313 314 312 312 318 312 303 301 298 309 306 312 312 313 317 317 316 316 304 308 318 319 318 320 315 321 312 311 313 314 315 314 308 304 309 309 308 308 308 306 306 305 309 310 309 308 316 317 317 315 315 315 316 316 314 318 319 320 318 310 309 315 321 324 325 328 332 333 334 336 340 340 341 341 342 342
311 311 310 309 308 308 308 309 309 307 306 311 312 312 313 315 316 312 304 292 294 310 306 309 314 318 316 317 318 312 313 313 309 314 318 320 319 316 313 311 310 310 313 311 301 309 309 306 307 306 306 305 305 308 311 312 309 311 316 317 316 316 315 315 316 315 315 314 309 313 317 310 309 316 323 325 323 326 330 332 334 336 338 340 340 340 341 342
311 310 310 309 308 307 311 310 309 306 311 312 312 311 312 315 310 304 300 292 307 306 316 309 317 315 315 316 314 314 313 315 308 314 318 319 320 318 310 312 313 312 313 311 306 308 310 310 309 308 306 304 308 310 312 312 308 313 317 318 317 317 316 315 314 314 313 311 306 311 314 308 308 314 318 326 323 323 327 331 333 337 337 339 339 340 341 343
311 310 310 309 308 311 314 313 310 312 312 314 313 313 313 312 309 297 294 289 309 300 309 310 310 309 314 310 311 314 311 313 314 315 316 313 315 317 316 318 314 312 311 312 310 311 311 316 315 309 307 309 310 311 312 312 313 316 315 315 314 315 314 315 314 314 312 306 308 312 314 312 305 312 314 318 321 323 322 326 333 337 338 339 340 340 340 341
310 309 309 309 307 309 309 305 311 314 315 315 314 312 312 310 301 296 290 298 306 307 311 308 307 312 309 308 306 312 311 312 312 314 311 313 311 313 313 310 315 311 310 309 308 310 310 309 309 310 312 311 312 310 313 314 314 314 312 311 312 311 314 313 311 313 305 303 311 313 312 314 304 309 316 322 327 324 322 320 323 331 337 339 341 340 340 341
308 308 309 309 309 312 305 303 311 313 314 315 309 306 304 296 299 292 294 308 296 304 304 306 309 309 308 308 306 307 308 310 313 311 310 308 308 306 308 305 308 302 302 304 304 309 307 308 310 310 313 310 309 308 309 312 313 311 311 311 306 304 306 302 306 302 302 302 310 313 312 309 309 314 318 320 322 323 325 323 323 324 335 340 341 342 342 341
307 307 307 309 312 311 311 311 313 313 313 310 307 304 297 294 289 296 298 302 298 308 304 310 307 307 307 306 306 308 308 305 312 311 312 310 308 308 310 309 311 307 301 306 304 304 305 310 310 309 310 312 310 304 304 304 307 308 307 307 304 301 300 296 301 305 304 308 312 312 314 308 314 317 321 319 323 326 325 326 326 327 327 339 341 343 342 342
306 307 309 313 312 313 315 317 316 315 311 310 305 299 296 290 291 303 299 302 302 307 308 307 307 308 307 304 306 307 304 308 309 309 310 309 307 305 306 309 311 308 307 308 302 303 299 299 305 308 304 311 309 307 308 307 307 308 311 309 307 306 302 298 301 299 301 304 308 313 309 307 307 311 321 323 325 325 326 325 328 331 334 337 342 343 342 342
305 308 313 313 315 315 315 316 317 315 312 307 299 295 289 290 297 297 299 302 304 306 305 308 305 305 305 306 307 308 307 305 309 309 308 307 305 306 305 306 309 311 309 303 307 305 302 303 308 312 311 311 307 310 311 310 308 310 310 312 308 306 312 303 306 305 305 304 305 309 308 313 311 321 326 326 324 324 325 326 328 331 334 335 337 339 340 340
306 310 312 312 312 316 316 316 316 313 311 303 295 292 290 295 295 301 300 306 305 302 303 305 304 301 302 304 307 306 308 305 308 308 307 307 309 306 309 309 308 311 308 303 307 302 304 301 309 311 312 310 309 311 310 312 301 307 308 304 308 315 312 308 309 310 309 307 303 311 311 312 317 319 322 323 322 322 323 324 326 328 331 335 335 337 339 339
307 310 306 308 311 317 317 317 315 312 310 301 293 290 295 297 302 302 308 305 304 305 303 297 300 299 299 299 302 304 306 306 306 306 304 308 305 308 308 310 313 312 312 311 306 310 302 303 308 307 306 310 313 312 311 312 312 310 304 307 314 317 315 310 302 306 304 300 303 307 307 309 308 305 319 318 317 318 320 321 323 326 330 332 333 336 339 339
307 308 309 310 315 318 318 317 314 312 307 298 292 296 299 296 302 302 306 307 305 305 301 300 300 303 300 300 300 303 306 302 304 305 303 308 303 312 309 309 313 312 313 314 308 308 308 301 305 308 308 310 312 311 308 311 313 310 309 315 307 303 302 309 307 299 299 299 301 305 308 308 310 309 315 316 317 318 320 321 321 322 328 331 333 335 338 340
308 305 302 313 317 317 317 317 314 310 305 296 294 292 297 298 302 302 304 305 305 304 300 302 300 303 303 301 303 305 306 300 304 304 302 306 302 310 309 311 310 314 314 314 309 310 310 300 303 309 307 309 309 307 301 304 310 312 314 311 314 310 306 305 307 308 307 301 300 301 305 304 313 313 315 316 319 320 319 320 321 322 325 331 333 334 336 339
301 299 297 314 317 317 318 315 310 307 302 294 296 296 300 297 300 302 303 302 301 301 300 301 303 301 303 303 305 303 305 304 304 304 304 306 304 310 309 312 310 312 314 314 311 313 308 310 299 306 309 308 301 305 302 305 303 304 306 306 309 309 312 311 310 307 304 302 301 301 300 306 314 318 317 318 320 321 320 320 321 322 323 325 334 334 336 340
304 300 300 314 316 317 314 310 302 301 300 301 301 299 300 298 300 301 302 303 302 305 301 301 301 300 302 302 302 305 304 303 303 302 303 305 305 303 310 311 312 311 313 313 311 312 308 307 300 304 303 302 304 308 307 307 308 306 305 304 307 306 304 301 300 311 309 304 299 301 300 309 316 320 320 319 321 320 321 321 321 322 322 325 330 335 337 339
300 294 300 308 315 313 306 297 298 303 301 299 298 300 298 304 300 300 301 303 301 300 304 301 302 301 301 301 303 303 303 303 304 303 304 302 306 306 310 312 312 313 311 308 309 313 313 310 305 302 304 304 306 309 311 310 309 309 308 305 308 308 308 304 297 303 308 308 309 307 303 307 318 321 321 320 321 320 321 321 321 322 323 324 329 334 338 342
298 295 305 307 312 310 305 297 299 298 299 302 305 304 304 302 301 301 299 301 299 301 300 300 300 299 301 301 302 302 304 301 303 302 303 304 305 308 310 311 311 311 312 310 312 313 320 307 304 304 309 310 311 312 312 311 309 306 307 309 308 304 306 306 306 308 306 307 305 304 302 307 317 324 323 321 323 321 322 321 322 322 322 325 332 336 338 342
298 297 300 312 314 311 303 294 295 296 297 300 301 300 304 302 301 299 299 301 299 299 298 298 300 302 300 303 302 300 304 297 302 301 301 304 303 309 309 310 311 309 309 310 308 313 306 309 306 302 301 304 306 309 308 310 309 305 304 307 309 309 308 309 309 311 304 306 307 303 298 306 317 322 324 321 320 319 319 320 321 321 323 326 335 339 338 344
297 301 303 306 312 310 299 301 299 298 300 300 301 300 301 301 303 303 302 301 303 301 300 299 301 302 300 302 301 302 303 301 299 303 303 303 303 308 309 309 311 310 311 314 323 315 308 308 305 299 296 294 294 296 298 301 304 306 307 306 307 307 307 306 302 305 299 307 309 305 304 311 317 321 320 321 323 322 320 320 321 322 325 330 335 339 341 343
295 291 298 300 309 308 306 307 303 300 298 299 298 299 301 299 303 304 303 302 304 304 302 303 303 303 301 300 299 300 300 303 300 301 303 302 304 307 309 310 310 311 316 319 319 316 309 310 308 306 303 301 304 307 310 309 307 303 304 305 306 307 308 308 307 304 300 305 306 308 310 311 313 315 317 317 319 319 319 321 320 321 323 331 343 343 341 343
298 293 295 294 301 301 300 303 301 302 297 301 295 299 298 300 302 303 305 299 303 303 304 303 303 301 300 301 299 299 301 301 303 302 302 303 306 307 311 311 311 316 317 314 320 316 313 308 309 309 309 308 309 309 310 310 306 307 305 304 306 306 307 305 302 301 310 305 300 308 313 309 311 315 317 318 318 320 320 321 321 322 323 330 334 347 345 341
292 296 301 301 294 291 294 296 300 296 297 299 297 300 297 297 299 299 304 305 304 305 300 302 303 304 304 302 302 299 301 301 302 300 302 303 304 307 307 310 309 315 316 313 319 317 312 306 310 309 308 309 310 309 310 309 308 308 308 306 305 306 306 304 305 306 309 303 302 310 313 311 313 314 316 319 320 320 319 320 321 321 321 327 344 342 340 338
298 298 297 301 293 296 295 296 296 295 294 295 295 297 296 296 296 300 302 303 303 302 303 297 300 302 303 305 304 301 303 299 300 304 304 303 303 304 303 306 309 312 312 312 314 318 315 309 310 310 308 309 309 310 310 308 308 308 308 308 308 307 306 306 306 307 306 307 308 309 314 312 313 314 317 318 321 320 321 322 322 321 320 327 340 343 337 337
294 294 293 298 296 293 293 293 293 294 293 296 292 293 294 296 296 300 303 302 300 302 305 300 301 303 303 303 304 302 305 306 305 303 307 306 305 306 304 305 306 310 311 309 312 318 312 308 310 309 307 306 309 310 310 309 308 306 308 308 308 308 307 307 307 307 308 307 306 307 310 309 316 318 318 319 321 320 320 319 319 321 321 322 330 337 338 336
299 300 298 292 289 293 295 295 294 294 293 294 292 293 293 294 295 298 297 302 301 300 303 301 303 304 306 306 306 306 309 309 310 310 311 310 305 308 306 307 309 308 310 309 312 314 312 309 312 310 304 304 307 308 308 309 308 307 306 307 307 307 305 306 305 308 307 306 307 307 306 306 314 318 318 319 319 319 318 319 320 322 321 327 333 337 338 340
301 302 301 297 290 295 292 295 294 292 288 293 294 296 296 296 296 297 294 300 302 304 304 302 303 303 304 304 304 306 309 308 308 309 310 310 311 311 312 312 313 311 309 310 313 311 312 310 308 307 303 303 307 308 307 307 306 303 304 307 308 309 309 309 310 310 310 309 306 304 305 312 316 317 315 317 316 317 318 319 322 323 331 333 335 340 339 340
Wind_Speed
21 20 21 22 22 22 22 22 21 22 21 21 20 21 21 22 22 22 21 20 20 20 20 20 19 19 19 18 16 15 15 10 7 9 9 7 5 7 8 11 18 15 13 15 12 14 14 13 11 10 9 8 6 7 7 7 3 5 4 2 2 2 2 4 4 2 5 9 10 13 11 9 10 10 6 7 8 8 11 7 11 5 2 9 14 18 20 20
22 21 21 21 22 22 22 22 22 22 21 21 21 21 22 22 22 21 21 21 22 22 21 19 19 19 19 17 15 13 14 9 11 11 14 8 9 5 7 13 20 16 17 14 17 16 15 14 12 13 9 8 6 5 9 5 7 5 5 5 0 1 3 3 4 4 3 8 10 11 12 9 9 12 10 10 11 11 11 9 10 9 11 14 18 20 20 20
22 22 21 21 22 22 23 23 22 22 21 21 21 21 22 22 21 22 22 22 21 21 21 20 19 20 18 16 13 13 11 11 11 12 7 2 4 8 12 11 17 19 19 15 15 14 12 12 11 12 9 7 7 6 9 5 8 9 8 3 3 2 1 3 4 6 3 8 11 12 12 9 11 10 11 10 11 12 12 11 12 12 14 17 19 20 20 19
22 22 22 22 22 22 23 23 22 22 22 22 22 22 22 21 22 22 23 22 21 21 20 20 19 18 17 16 11 12 9 11 11 8 7 2 2 10 12 16 16 17 15 13 13 12 10 12 13 13 8 9 7 7 8 7 7 6 7 5 1 3 2 3 6 7 5 9 11 12 11 9 12 9 11 9 10 11 10 13 16 16 16 19 21 20 20 19
23 23 23 23 22 23 23 23 22 22 23 23 22 23 23 23 22 22 22 21 21 20 20 21 19 17 15 13 12 9 9 13 5 7 8 4 7 11 13 18 20 17 16 10 11 12 12 13 12 11 9 8 8 8 10 9 10 3 8 8 6 1 6 2 6 7 7 7 11 12 13 10 11 9 11 10 9 7 9 13 13 15 19 20 21 21 19 20
24 23 23 23 23 24 24 23 23 24 23 23 23 23 23 23 23 22 21 21 21 20 20 19 18 15 15 11 11 7 6 5 5 4 7 5 8 11 12 16 20 19 14 12 12 12 13 13 13 11 10 10 10 11 9 11 10 8 8 10 7 4 6 2 4 8 9 10 12 13 12 10 13 10 11 11 8 5 6 11 11 14 18 20 21 20 19 19
24 24 23 24 24 25 25 23 24 23 23 22 22 23 23 23 22 21 22 21 20 20 20 18 16 15 11 12 8 5 9 13 15 7 10 8 8 10 12 14 14 16 14 12 13 12 16 15 16 13 11 12 12 12 8 9 11 10 7 7 9 7 8 4 6 9 11 12 12 10 12 12 13 10 10 11 7 4 2 10 11 15 17 19 21 21 21 20
24 24 24 24 24 25 25 24 24 24 23 23 22 23 24 25 24 24 23 22 22 20 19 17 14 10 11 8 5 7 8 10 5 10 9 9 7 9 12 13 16 14 15 16 16 16 16 17 18 13 12 11 9 13 8 9 11 11 10 10 7 7 8 6 6 10 12 12 10 12 14 14 14 7 11 11 9 3 6 11 12 15 17 18 19 20 19 19
24 24 24 25 25 25 26 25 25 25 25 24 24 24 25 24 24 24 23 23 22 21 18 14 10 9 4 5 6 11 11 3 4 6 10 8 7 11 14 11 16 16 15 16 17 16 15 16 17 15 11 15 11 12 10 9 9 13 11 9 9 8 8 7 8 10 12 9 11 15 13 11 12 6 10 10 9 5 10 12 14 16 17 18 19 19 18 17
24 24 24 25 26 26 26 26 25 26 26 26 25 25 26 23 23 24 24 23 22 20 16 12 9 9 6 5 7 11 2 6 6 6 6 6 7 8 11 6 16 16 15 16 15 17 19 13 18 17 11 11 9 10 10 12 4 3 10 11 9 7 6 7 11 12 13 12 15 14 13 12 11 9 7 11 10 8 11 13 15 15 16 17 17 17 17 18
24 25 25 26 26 27 27 27 26 27 26 26 27 28 26 26 25 25 23 23 21 16 11 7 5 8 7 6 8 12 4 3 5 5 6 6 4 5 6 6 14 15 17 15 17 19 18 16 14 9 7 9 8 12 11 9 9 5 4 3 7 8 9 8 10 11 12 11 15 12 10 10 10 9 6 13 12 10 12 13 15 15 15 16 17 16 15 15
23 24 25 25 26 27 27 27 26 27 27 28 30 27 28 27 26 24 23 20 16 10 6 5 10 6 6 7 10 11 4 4 4 4 5 6 8 8 7 7 12 15 16 15 17 17 17 16 13 12 8 5 10 7 12 7 8 8 6 10 6 6 9 10 12 14 15 10 15 11 9 10 11 13 7 14 14 12 12 13 14 15 15 16 16 15 14 14
24 25 25 26 27 27 26 27 28 28 29 28 28 27 27 27 25 23 20 15 6 5 5 6 9 6 5 9 11 12 8 3 4 5 8 8 9 7 6 7 11 13 14 14 14 15 16 12 13 15 15 5 9 7 3 9 9 6 9 10 6 7 8 10 9 12 14 9 15 13 7 9 14 13 10 15 15 14 12 12 14 13 14 15 16 15 14 14
25 26 27 26 27 27 27 28 28 29 30 29 28 27 27 26 25 21 17 12 10 6 5 10 7 5 6 11 5 2 5 5 5 9 11 6 8 6 6 6 8 9 9 11 10 10 10 7 12 14 11 10 8 7 8 7 9 10 9 9 9 7 6 12 11 14 14 11 15 14 8 5 11 15 13 15 16 16 14 13 14 13 14 14 15 15 14 15
26 26 27 27 27 27 27 28 28 29 30 28 28 29 27 24 22 18 13 11 3 5 7 8 6 5 7 8 5 5 4 4 9 10 4 5 6 7 8 8 8 8 8 9 7 8 8 8 8 11 10 13 8 8 10 8 8 10 8 10 10 10 6 11 10 16 14 11 15 13 9 5 7 15 15 15 15 16 15 14 15 14 14 14 14 14 14 15
24 26 27 28 27 28 27 26 28 29 29 28 28 29 26 21 16 13 8 4 6 8 6 6 6 7 10 12 3 5 5 4 8 5 5 4 5 5 9 9 7 7 7 7 2 5 7 9 11 11 11 11 12 10 10 10 9 10 11 9 11 10 7 8 12 14 12 11 14 15 7 7 5 12 16 15 17 16 14 15 15 16 16 15 14 13 13 14
22 24 26 27 28 27 28 27 27 31 28 29 29 28 21 16 11 7 6 7 6 5 5 3 3 4 6 5 1 7 5 6 5 5 5 5 6 4 11 10 8 9 8 5 6 6 10 10 9 8 11 10 12 12 12 12 11 11 11 11 8 13 10 8 12 12 13 12 13 17 12 5 3 11 14 15 16 16 14 15 16 15 14 15 14 14 14 14
22 23 25 26 28 28 26 25 29 29 29 30 28 25 19 14 11 5 6 7 3 3 4 3 5 5 12 9 8 5 6 7 6 3 8 4 5 8 11 10 9 10 9 9 8 10 11 11 11 11 11 13 14 15 15 16 14 12 12 12 9 9 8 10 11 14 15 15 14 16 16 13 6 8 12 14 15 16 15 14 15 15 15 15 14 14 15 15
26 25 24 25 26 26 25 24 28 27 27 31 28 21 10 6 7 7 5 6 5 4 5 7 7 7 5 3 3 3 4 4 6 8 9 5 7 9 9 6 10 13 10 10 10 14 11 10 11 13 16 16 17 18 17 14 15 14 13 12 10 10 10 10 10 13 18 16 14 15 14 15 11 7 10 12 13 14 14 13 12 14 15 15 15 14 15 15
27 26 25 25 25 25 25 25 26 26 26 22 14 6 4 4 5 5 7 8 11 13 14 5 11 13 16 14 11 8 3 6 7 6 7 8 8 11 10 10 12 11 10 10 13 15 11 14 15 17 16 18 19 19 19 18 14 13 12 13 13 11 10 12 12 13 18 13 15 15 15 14 13 11 10 11 12 13 14 15 13 13 14 15 15 15 16 16
25 25 25 24 24 25 26 25 25 25 24 14 13 9 3 6 8 4 8 13 17 16 15 15 15 16 16 7 3 3 6 7 8 7 9 8 11 13 11 12 12 12 12 12 10 11 12 15 16 18 18 17 20 19 19 19 16 13 13 13 12 12 11 12 12 12 15 13 11 14 14 14 13 10 7 10 13 14 15 15 15 15 15 14 16 16 16 15
25 25 24 24 24 27 25 26 25 24 21 10 8 6 5 7 6 5 5 9 8 11 16 18 13 17 16 17 14 9 6 8 10 10 6 11 13 14 14 14 15 13 12 13 10 11 13 17 16 18 18 15 17 19 20 21 18 15 13 11 12 11 11 10 9 9 12 13 8 12 14 14 14 12 10 12 13 12 13 15 15 15 16 14 15 16 16 15
25 24 25 23 26 27 29 27 26 22 7 6 5 3 4 4 5 3 6 10 16 10 14 15 14 18 16 10 9 8 12 15 12 13 13 13 14 16 13 14 14 13 13 14 12 12 13 15 17 16 17 18 16 19 20 20 17 14 14 13 12 11 10 10 10 11 13 11 9 10 12 10 12 14 13 12 14 12 13 15 15 15 16 17 17 16 15 17
25 26 23 24 25 27 30 27 28 12 4 10 7 2 4 4 6 8 6 6 11 9 13 11 12 12 11 7 7 13 13 9 10 11 15 15 14 14 12 16 16 15 14 17 18 14 13 8 15 16 17 16 18 19 20 17 15 17 17 14 13 12 12 12 11 12 11 11 9 9 10 10 12 13 13 13 15 14 14 14 15 15 15 15 15 16 17 18
25 25 25 25 23 25 30 28 7 4 12 9 4 1 1 5 5 7 8 7 9 8 6 6 5 7 4 5 8 10 8 8 11 5 14 18 16 13 13 11 11 15 15 16 17 15 16 6 6 17 15 18 18 15 18 16 16 16 20 18 15 13 13 17 11 12 9 10 10 11 8 12 12 16 17 11 12 16 15 15 16 16 16 16 17 18 17 18
25 25 27 23 23 23 33 11 4 11 14 3 4 5 2 6 5 8 6 6 9 2 5 7 6 5 5 7 8 6 4 8 9 10 10 16 15 13 9 12 10 13 17 16 14 11 11 10 11 13 17 18 19 17 18 18 15 16 15 19 18 15 11 15 14 13 12 12 10 13 12 10 8 13 15 16 16 17 15 18 18 17 17 17 16 16 17 18
26 28 24 21 20 20 12 4 10 13 7 5 3 2 5 6 5 6 5 5 8 2 2 5 5 5 5 9 9 8 8 6 4 9 13 15 17 14 13 11 10 9 10 8 7 12 13 12 11 14 17 18 17 17 17 19 16 16 13 17 19 17 12 14 14 16 12 10 8 12 10 10 11 11 12 13 16 16 17 18 19 18 19 20 18 18 18 18
28 26 23 20 19 14 9 11 10 8 6 5 3 6 7 5 4 4 5 5 4 4 4 6 2 3 5 7 10 10 6 2 6 10 13 12 15 16 14 15 13 14 10 11 15 7 17 15 13 14 15 15 17 16 15 19 17 13 16 15 18 16 15 13 14 14 13 10 11 11 14 11 12 10 8 10 14 15 18 19 19 20 20 21 21 20 20 20
25 26 25 22 21 24 12 8 7 8 3 5 8 9 5 5 4 5 5 7 4 3 4 5 1 6 5 6 11 11 9 3 6 7 10 11 15 7 14 17 13 14 14 15 12 8 8 16 17 15 13 14 14 16 17 18 17 18 8 10 13 16 15 15 12 14 15 15 15 14 15 12 12 11 11 11 13 13 16 18 19 20 21 21 20 21 21 19
25 25 27 22 20 8 5 7 11 12 9 8 8 8 8 6 5 6 6 9 2 6 7 5 7 8 8 8 7 10 10 6 5 6 11 11 16 9 7 8 14 14 13 16 17 10 5 9 11 14 15 13 13 15 17 18 19 9 10 11 12 13 13 13 12 11 14 18 15 16 16 14 12 12 12 11 12 15 14 12 14 17 19 21 21 21 20 19
24 25 25 21 11 7 6 8 8 7 5 4 7 10 7 5 7 7 12 2 2 4 5 8 8 6 9 8 7 10 8 7 10 9 11 11 14 14 8 8 11 12 11 13 15 18 10 9 10 11 14 12 12 13 11 12 18 11 9 12 10 11 8 9 10 9 13 13 12 18 15 17 15 12 11 11 14 14 12 12 13 16 20 20 19 19 20 20
25 26 28 18 14 8 9 4 6 3 2 5 9 7 7 9 8 13 8 8 8 8 9 9 9 10 8 4 6 5 6 9 9 12 11 12 13 15 15 13 13 13 15 14 13 14 17 14 10 11 12 17 15 13 13 14 16 15 14 14 15 10 9 12 12 13 15 14 13 17 19 15 18 14 10 8 13 14 13 12 11 10 15 18 19 20 18 18
26 26 31 18 13 9 15 13 4 3 5 6 6 5 9 10 14 13 11 7 1 1 5 3 9 10 8 6 9 8 3 8 12 13 14 14 14 16 18 18 16 15 11 13 12 13 13 13 16 13 12 16 16 15 13 14 16 17 17 15 15 16 14 13 13 10 11 14 17 12 15 15 10 13 18 18 13 12 13 12 13 11 9 13 17 18 17 18
27 28 17 10 9 9 7 6 7 7 6 5 6 7 10 13 15 6 16 13 4 5 5 7 5 8 9 10 6 3 8 9 9 11 15 12 15 14 16 21 18 17 14 10 14 13 11 15 18 19 13 17 20 18 15 11 15 16 17 17 15 15 13 14 13 15 14 11 14 15 12 11 13 9 11 14 17 17 15 15 12 10 10 10 13 16 18 19
31 25 14 12 8 8 10 8 6 7 6 7 8 12 15 17 8 10 11 11 12 6 6 4 7 7 10 12 8 9 7 4 10 10 13 13 14 13 15 16 22 16 14 13 11 10 18 12 11 22 11 16 19 19 17 15 13 16 16 15 17 19 12 14 10 13 12 12 13 15 12 8 12 5 3 4 6 8 9 11 11 11 11 10 11 15 16 17
23 9 11 8 5 1 5 6 7 8 8 8 11 14 19 13 10 9 7 8 9 10 10 9 10 11 10 10 10 9 10 9 9 10 11 14 13 14 15 13 17 21 14 14 7 11 10 13 10 18 21 17 19 18 19 15 14 14 16 20 17 13 18 15 13 18 15 13 17 10 10 12 10 12 12 13 12 13 13 13 12 13 12 12 12 14 17 17
12 13 8 6 5 2 3 6 6 7 7 10 13 18 14 12 16 7 4 7 5 9 10 11 11 12 11 12 11 13 10 10 8 9 10 13 13 16 15 15 16 20 21 11 10 7 8 8 11 11 21 18 16 18 19 20 14 9 17 17 15 15 14 15 16 11 12 17 13 13 14 12 15 14 13 20 20 19 17 15 14 13 12 14 14 14 15 17
13 11 13 11 1 0 3 6 8 7 8 11 18 19 9 15 12 16 5 5 2 8 9 11 8 11 11 11 12 13 13 10 10 11 11 13 8 14 15 13 18 17 20 18 12 9 11 10 12 17 16 17 17 17 18 20 21 17 11 13 17 13 16 14 13 18 18 18 13 15 18 14 15 13 10 11 13 16 16 17 15 11 12 14 15 16 16 16
12 10 8 6 3 3 5 7 7 7 9 12 15 14 15 15 11 13 14 11 7 8 12 12 10 9 12 10 9 10 12 12 10 9 10 8 10 11 15 12 14 19 19 20 15 8 9 10 7 14 15 16 17 16 17 17 21 23 15 12 17 14 15 15 14 11 13 16 15 18 19 14 14 14 14 13 12 10 10 10 8 10 12 13 12 13 15 16
8 6 4 7 5 4 6 7 5 7 10 16 13 14 6 13 16 17 14 14 12 11 11 13 14 12 11 11 10 9 11 13 7 8 10 6 10 10 12 16 11 18 19 21 16 13 9 9 11 10 16 14 15 15 19 18 18 18 18 14 14 14 10 13 15 16 15 14 15 13 16 14 11 11 15 16 13 10 10 10 10 10 11 12 13 12 13 15
7 5 2 6 4 4 3 6 8 10 12 12 16 15 14 13 9 12 18 19 14 12 13 13 12 12 11 11 14 11 6 9 9 9 8 7 9 7 10 10 12 14 18 20 19 14 10 11 13 7 11 14 14 16 20 22 19 17 16 18 16 14 16 17 17 16 18 16 12 15 17 10 9 11 12 14 16 14 14 14 14 14 15 13 12 12 12 13
7 7 2 4 2 4 6 9 9 9 10 14 13 11 12 7 12 13 11 13 18 12 12 14 15 14 13 15 11 11 12 10 11 11 9 10 10 11 8 5 10 13 13 14 16 14 10 6 11 12 10 12 15 16 19 21 22 20 18 18 19 17 14 15 14 14 15 18 19 19 16 16 9 7 11 14 16 19 17 16 17 16 16 13 9 10 12 13
6 10 14 18 5 6 6 9 10 11 12 11 11 16 13 11 10 10 14 15 14 14 14 14 16 15 16 13 14 15 11 10 11 11 9 11 10 11 6 3 4 9 10 10 14 13 10 10 10 13 11 12 14 15 15 18 21 22 21 18 19 21 20 18 14 13 16 16 16 18 18 14 10 9 8 10 10 13 14 16 15 14 15 9 8 9 10 12
8 10 9 4 3 5 7 8 8 11 12 13 15 16 12 13 14 14 15 14 12 12 15 13 13 18 14 15 13 13 13 12 12 14 12 10 10 10 13 11 8 7 9 8 11 13 11 10 11 11 10 9 11 13 15 14 15 15 16 18 21 21 24 21 18 15 17 20 19 17 22 12 10 8 6 9 13 16 17 16 16 16 15 11 7 8 8 10
10 10 12 9 6 8 8 7 10 9 10 11 11 13 12 13 12 15 13 13 14 15 12 14 15 11 15 14 15 16 15 16 8 11 13 11 11 12 13 11 11 11 12 1 11 6 13 11 13 13 15 15 15 16 16 16 17 14 17 21 23 25 25 19 19 17 17 17 22 19 17 13 13 13 15 12 12 12 13 14 15 14 13 10 5 6 8 9
6 7 5 6 8 8 9 10 10 9 9 9 10 11 13 14 11 14 18 18 15 13 15 11 12 15 15 16 17 16 16 16 15 7 8 10 9 8 10 11 9 12 0 9 9 6 8 10 13 15 15 15 13 11 11 13 12 17 19 22 22 23 25 23 16 17 20 13 16 18 16 14 19 17 14 17 16 15 12 12 12 12 14 10 5 6 7 8
6 7 6 5 8 8 11 9 9 8 9 8 8 7 10 10 10 11 13 12 15 16 13 15 12 14 14 16 16 16 16 15 16 15 12 10 10 9 9 7 8 9 3 8 11 8 8 10 13 17 19 18 16 15 14 16 18 18 21 22 23 22 23 26 22 21 16 14 17 15 16 20 18 17 16 18 16 16 15 15 13 13 13 13 11 7 9 8
7 6 6 4 5 7 10 5 8 10 11 11 11 11 12 13 11 10 9 14 13 14 14 12 18 16 15 16 14 13 13 15 15 16 15 13 10 10 9 10 11 9 7 10 8 8 8 12 13 15 18 20 22 21 19 17 17 17 19 20 21 23 23 24 24 25 22 18 18 12 16 20 19 22 20 17 14 16 15 15 17 19 19 13 8 10 10 11
9 7 9 7 8 7 8 12 16 12 14 12 9 11 12 13 14 11 8 8 11 13 14 13 16 19 19 17 14 13 14 13 15 15 11 11 15 12 11 10 14 12 12 10 9 7 7 11 13 15 18 19 22 23 23 24 20 21 22 21 23 24 25 25 24 24 26 22 20 17 16 20 21 21 23 25 17 17 16 14 16 18 18 13 10 10 11 11
7 7 6 4 7 10 12 10 10 11 10 8 8 9 10 10 12 12 8 7 9 12 12 14 14 15 20 22 20 15 12 12 8 9 13 15 12 12 11 10 7 16 14 11 9 7 8 8 9 12 13 16 19 21 23 24 24 24 23 24 24 24 25 26 24 24 24 25 26 24 24 20 15 17 20 22 21 19 18 18 19 17 17 20 15 12 12 12
7 7 6 8 9 6 7 9 8 7 8 7 7 9 10 10 9 10 12 11 12 12 10 11 6 10 5 5 7 11 11 10 9 9 5 4 8 4 7 6 11 8 11 10 9 9 9 8 8 8 10 12 15 18 21 22 24 24 24 24 25 24 24 22 22 21 21 20 21 24 23 19 15 16 17 18 19 21 21 18 17 16 20 18 14 13 12 12
5 7 7 6 9 8 10 8 8 8 9 7 6 6 4 7 9 10 9 10 10 10 6 11 11 10 7 6 7 4 4 5 5 7 8 7 9 11 9 10 6 7 8 12 7 9 6 7 7 8 11 11 11 15 18 20 19 20 21 21 22 23 21 20 21 23 24 22 20 20 20 15 15 16 20 21 22 23 21 19 17 19 15 15 14 13 13 13
Wind_Direction
354 353 351 350 348 347 345 343 342 341 338 336 334 333 332 333 332 332 331 328 327 327 325 324 325 326 325 326 327 328 321 305 288 260 239 260 349 95 169 129 154 164 173 174 162 165 171 176 179 167 183 183 200 221 173 210 209 222 268 245 214 85 190 121 140 127 84 146 147 168 165 156 155 168 148 174 169 155 152 156 142 110 125 124 126 137 142 148
353 351 350 349 347 346 344 342 340 339 337 334 333 332 332 331 330 329 329 327 328 326 325 323 322 324 324 322 323 329 314 290 274 262 256 328 318 185 152 161 157 164 183 177 172 179 169 175 172 174 177 201 164 201 158 190 197 182 219 233 308 83 73 104 143 158 162 143 155 164 171 167 154 172 156 182 167 158 165 156 155 137 113 121 134 139 150 153
351 350 349 349 346 344 343 341 339 336 334 332 331 330 331 330 328 327 327 327 325 325 321 322 320 321 320 322 320 316 308 291 260 265 121 82 286 181 156 163 171 173 184 178 183 184 183 167 162 181 190 214 181 181 199 169 194 212 255 236 225 102 317 165 172 170 195 137 163 165 169 180 146 174 157 197 165 174 182 162 170 157 144 144 142 150 151 160
350 349 348 347 345 343 342 340 337 335 332 331 330 330 328 327 327 326 325 324 323 321 320 319 319 320 318 316 323 311 282 278 282 106 111 121 201 167 162 161 182 189 196 190 188 195 189 171 171 193 194 239 186 214 194 172 214 175 230 248 130 99 256 194 202 180 181 159 163 167 162 174 158 171 176 188 176 191 195 176 175 169 155 150 151 153 157 163
350 348 346 346 344 342 340 339 335 333 331 329 329 328 328 326 326 325 322 321 319 318 317 318 315 315 317 310 311 293 297 285 87 95 108 163 166 168 161 168 173 193 204 197 199 207 201 185 180 204 226 224 210 202 224 187 221 222 227 234 270 76 271 141 213 179 181 170 163 165 169 172 159 169 192 184 191 181 196 175 185 162 157 154 156 158 161 166
348 347 345 344 343 341 339 337 335 332 330 328 327 327 326 325 324 322 320 317 315 316 316 315 313 311 311 313 298 274 290 301 53 126 116 153 151 173 168 169 178 191 203 208 203 196 197 187 189 205 212 229 212 219 205 216 193 236 216 242 248 269 284 64 212 183 182 179 176 174 170 154 175 180 193 188 199 66 182 164 175 158 160 159 156 158 165 167
347 346 344 343 342 340 338 336 334 331 328 327 325 325 324 324 322 320 317 316 313 314 314 312 309 306 308 299 266 265 262 276 285 106 125 148 146 182 174 175 184 196 197 204 201 192 196 190 199 206 211 221 229 227 230 198 191 235 244 216 222 226 239 219 232 175 193 191 184 169 162 174 177 186 183 195 181 85 165 160 157 154 158 159 162 165 167 170
346 345 344 341 341 339 337 335 332 329 327 324 324 324 324 323 322 320 317 313 314 311 311 306 304 296 294 278 249 257 260 266 309 87 106 119 155 169 168 185 188 199 200 203 197 200 191 198 198 204 221 220 209 221 212 218 197 222 231 231 233 229 231 230 222 186 199 198 175 167 176 184 184 174 172 196 173 122 147 149 152 153 159 166 167 169 169 171
344 343 343 341 339 338 336 334 331 328 326 324 323 324 323 321 321 319 316 314 311 310 305 301 289 292 285 277 265 291 278 339 71 121 135 128 118 144 167 175 192 197 204 206 204 203 197 207 207 204 211 219 222 227 208 223 212 224 239 236 240 239 244 235 223 200 200 190 177 179 185 175 187 145 188 181 165 145 145 151 155 158 161 171 173 171 169 173
344 342 341 340 338 337 336 333 329 328 325 324 323 322 321 318 318 317 314 311 309 308 299 289 268 240 237 234 258 268 9 102 136 150 143 140 135 146 181 210 182 200 206 207 205 207 207 205 210 204 245 257 232 229 215 216 299 137 228 239 248 251 252 225 227 203 194 193 176 184 182 174 170 178 178 177 155 150 157 160 160 164 169 173 174 174 173 176
343 342 341 339 338 337 335 332 330 326 325 324 322 322 319 319 317 313 310 307 308 303 294 263 221 213 213 221 266 272 74 210 150 153 166 163 183 245 245 214 195 201 207 207 211 211 213 219 206 215 235 245 201 226 222 222 248 248 268 242 252 257 249 235 219 202 187 188 183 192 177 163 165 201 205 166 157 164 163 164 166 170 174 173 176 175 174 183
343 341 341 339 338 337 335 332 329 327 324 324 322 319 318 315 313 311 308 310 302 297 288 240 198 219 257 233 249 261 99 297 173 167 183 213 254 266 268 222 204 209 206 211 212 212 216 218 209 207 202 188 231 224 223 212 225 230 218 241 216 233 232 205 207 190 181 177 183 178 154 183 185 202 193 152 158 169 168 168 172 175 175 177 177 176 177 185
343 341 340 339 337 336 335 332 329 327 325 322 321 318 315 313 312 310 308 305 298 294 242 202 185 240 248 251 249 254 253 229 230 235 260 252 257 245 241 225 216 221 219 220 210 209 212 217 211 213 229 242 230 218 66 196 216 228 221 251 218 222 223 192 196 177 188 157 182 154 201 210 206 202 176 155 164 169 172 175 177 178 179 179 181 180 181 183
342 340 340 339 336 335 334 332 329 326 323 322 319 316 313 311 310 307 301 290 279 248 220 181 223 220 246 261 292 201 239 253 256 260 257 241 226 206 202 198 213 219 218 227 218 204 203 217 224 228 230 234 226 102 215 194 204 223 220 231 240 227 217 173 184 168 192 156 181 185 230 199 183 189 165 165 168 173 179 182 181 181 181 181 185 185 184 184
342 340 339 338 336 334 334 331 329 326 323 320 317 314 312 308 309 300 292 276 217 179 185 199 229 229 231 266 242 66 65 239 238 228 200 191 194 169 191 176 194 203 194 211 198 191 208 208 221 219 219 221 282 207 216 209 195 222 210 215 224 236 146 161 184 177 189 155 185 203 242 237 149 171 167 171 173 180 186 184 184 184 184 184 186 191 187 185
341 339 338 337 335 333 332 331 327 325 322 318 316 311 308 304 301 292 302 33 150 182 194 220 204 242 297 281 93 128 190 214 189 190 157 262 204 202 170 173 182 180 176 185 237 192 196 202 214 207 212 190 224 215 211 219 207 212 227 223 206 214 161 173 185 192 190 159 182 204 219 215 185 155 168 174 176 184 192 189 188 188 188 185 188 191 191 185
340 338 337 336 334 332 332 330 327 326 322 317 316 307 305 305 277 281 132 155 172 192 226 281 160 220 269 65 271 234 210 162 104 167 198 249 261 195 158 161 182 182 188 161 196 198 190 207 202 221 233 218 205 213 218 213 214 210 210 242 220 215 175 211 162 195 190 176 182 201 228 226 76 158 172 180 181 186 197 194 192 192 190 189 189 191 189 190
339 338 337 335 332 331 329 326 328 325 322 316 313 302 300 305 293 242 184 212 164 204 231 279 263 261 237 230 234 196 123 156 183 282 282 311 241 176 171 171 162 169 175 176 181 201 176 202 192 210 196 212 202 209 216 210 211 204 202 220 215 241 198 205 175 181 196 189 200 194 221 229 164 169 178 185 189 191 198 198 196 195 193 191 192 193 192 191
339 339 336 333 330 328 325 326 325 324 321 315 301 279 276 259 252 230 226 167 193 176 205 171 201 201 34 116 130 98 200 74 293 277 272 199 174 181 177 181 169 163 178 189 173 202 170 203 195 212 205 201 204 209 214 219 210 220 210 216 228 214 197 218 190 175 192 186 206 201 212 222 208 174 181 184 192 201 203 202 201 199 197 194 196 196 196 195
339 338 335 332 328 323 325 324 323 321 323 321 327 326 208 215 194 182 201 215 236 254 283 282 211 274 291 270 246 252 296 232 259 225 232 171 173 178 184 180 169 194 185 203 160 208 171 203 198 206 205 200 207 209 215 222 224 225 218 224 230 232 213 200 208 179 191 195 205 209 214 223 224 201 191 189 188 200 208 207 205 205 202 199 199 199 199 198
337 336 334 331 327 323 324 323 321 320 320 303 303 293 339 4 317 323 338 277 255 251 256 254 245 252 253 272 251 254 282 241 225 243 223 174 204 178 177 186 178 201 198 202 175 184 198 214 210 206 210 203 205 209 216 227 226 227 226 224 230 234 230 182 194 186 189 206 201 213 222 227 231 229 192 191 193 201 206 210 210 208 206 205 204 203 202 202
336 334 334 330 329 326 322 321 320 318 308 274 284 326 80 43 3 341 299 296 278 252 243 247 249 254 253 253 260 273 254 259 234 219 203 193 180 203 162 199 189 204 186 202 184 178 208 218 212 205 209 215 207 208 213 221 224 224 233 225 235 222 233 141 181 192 198 214 220 198 223 226 228 223 209 205 203 207 209 212 213 210 209 208 207 207 204 202
334 333 332 331 330 325 323 319 317 317 294 331 322 313 65 27 350 331 269 276 276 237 235 237 230 238 252 252 241 199 225 227 233 203 189 198 182 222 165 202 195 206 186 191 197 190 209 220 217 204 209 215 210 208 210 217 225 225 223 234 226 223 199 191 192 191 197 210 219 210 230 237 235 234 229 217 213 211 212 214 216 213 213 210 209 209 207 205
332 331 330 331 330 325 321 320 311 281 298 323 279 339 56 356 340 332 271 272 299 279 219 223 234 234 246 258 166 187 209 227 216 219 174 191 201 200 206 202 202 206 198 196 211 213 214 215 208 213 205 209 208 204 211 214 218 224 231 227 231 217 197 212 184 200 196 212 246 231 231 239 236 230 224 222 219 217 212 212 215 216 217 216 213 212 210 209
326 329 330 330 331 326 318 317 293 347 321 286 207 165 49 345 335 336 292 268 235 242 164 217 207 235 170 103 146 202 211 234 218 235 174 191 194 191 211 199 215 208 207 197 207 223 221 204 226 203 198 207 214 210 211 211 221 219 222 231 232 229 208 209 188 189 198 213 206 216 229 242 226 229 237 231 212 216 210 211 211 210 212 212 215 214 212 213
324 328 332 328 330 334 310 295 44 338 316 336 79 145 355 329 332 313 271 277 285 251 144 184 190 139 165 178 166 210 141 232 196 211 179 195 204 205 182 213 206 208 204 200 205 219 223 152 201 201 207 210 214 221 209 215 223 223 211 218 229 236 225 217 196 198 211 225 195 204 239 250 243 234 227 224 227 215 208 212 211 206 207 210 212 212 211 211
325 326 327 327 329 340 335 12 351 316 290 112 75 11 329 327 335 281 260 222 257 93 182 64 219 111 237 146 179 157 218 125 134 185 193 189 204 201 220 200 186 244 209 193 191 211 212 191 191 210 211 209 210 217 209 208 221 225 217 208 219 228 222 224 198 210 232 228 209 210 224 248 249 240 234 227 226 214 212 214 212 207 204 207 208 210 210 210
325 321 321 325 322 326 279 293 312 308 317 19 337 332 326 330 301 253 254 278 266 130 164 159 7 120 249 156 189 217 26 132 214 172 200 173 211 186 222 205 199 203 196 184 213 171 190 198 199 192 212 211 215 212 206 207 219 227 223 213 210 217 221 224 209 219 233 236 236 223 213 239 251 245 238 220 221 212 218 219 215 213 209 207 207 209 209 209
321 319 317 321 320 297 273 243 280 269 331 346 323 318 320 309 253 257 274 272 107 198 24 153 164 191 175 170 204 229 255 231 288 120 188 185 211 210 205 225 208 208 193 205 223 160 189 213 203 205 203 217 217 212 216 205 216 223 265 211 211 214 222 225 225 220 222 226 227 220 210 235 246 240 221 209 228 225 228 223 218 212 210 208 208 207 208 207
319 316 316 320 318 274 216 240 242 248 289 306 304 299 298 257 214 220 203 238 103 200 177 91 207 165 172 189 192 204 222 208 225 131 176 189 187 229 252 247 217 212 203 209 235 226 173 199 213 206 210 217 216 220 216 211 219 213 210 215 212 217 223 221 231 231 227 229 220 226 208 219 247 234 216 206 212 225 234 228 224 218 212 210 208 205 203 203
317 314 312 317 299 309 298 264 244 247 243 281 288 281 271 224 234 231 226 216 296 136 152 169 164 159 186 211 208 167 227 213 180 178 169 190 183 203 196 208 220 219 210 211 213 226 182 173 197 210 214 213 222 219 216 220 213 210 210 208 207 214 220 229 225 228 244 232 222 234 229 202 242 238 237 204 219 235 235 236 226 215 211 208 207 206 205 202
317 314 308 310 279 268 236 297 85 85 101 321 310 276 227 221 220 223 211 77 258 143 207 181 170 188 189 199 255 204 212 185 193 191 186 185 183 192 196 211 182 203 212 204 211 206 220 204 195 191 201 212 199 218 197 209 215 213 221 214 209 190 196 214 213 216 224 236 222 225 231 218 225 250 264 207 223 231 239 245 246 234 213 205 203 205 203 203
316 312 306 291 266 219 233 256 278 282 306 308 294 237 216 229 235 203 233 166 220 71 146 300 174 190 199 218 223 212 207 251 172 203 201 190 204 197 201 212 188 212 211 194 213 198 216 215 206 198 185 201 207 204 196 200 205 208 213 208 203 215 206 220 214 225 234 221 238 235 225 239 240 234 233 250 238 227 241 249 256 262 247 206 203 199 201 201
314 312 304 288 275 251 258 253 255 263 250 233 228 202 229 233 233 166 217 208 201 96 114 191 170 214 219 224 181 180 231 209 191 195 199 193 205 201 202 212 211 204 237 189 211 196 203 198 211 200 204 181 207 214 207 205 194 207 212 213 213 220 214 216 215 217 221 232 215 210 227 224 231 228 233 231 242 247 247 254 254 240 233 222 208 201 199 200
312 298 285 288 263 240 235 229 229 215 209 197 202 213 216 228 233 222 217 210 226 216 208 143 238 227 218 227 227 226 264 190 198 203 201 208 200 215 201 203 207 215 207 233 194 216 217 233 195 201 209 180 203 206 218 202 206 207 214 223 222 219 217 234 223 225 225 223 228 202 220 213 232 229 161 227 236 241 251 252 246 231 220 215 209 204 204 200
304 315 305 271 258 244 187 194 197 205 212 207 211 216 224 217 220 214 240 226 227 232 227 219 240 243 240 235 193 218 157 267 165 223 213 215 212 214 207 204 203 200 211 221 180 218 206 228 201 185 204 201 198 196 210 208 212 189 207 217 222 219 230 232 244 242 237 229 235 218 207 226 247 250 237 240 239 245 245 244 234 229 218 209 210 207 205 203
319 316 313 315 277 169 180 182 184 199 224 227 220 229 225 231 237 249 218 210 246 228 230 239 216 226 227 228 227 202 190 213 213 219 222 204 223 216 207 209 204 198 221 221 210 224 245 217 183 181 200 201 197 196 208 213 232 195 211 215 220 233 246 233 229 213 227 232 230 220 220 220 224 239 227 236 242 245 243 243 238 229 210 207 210 207 204 204
315 305 285 269 272 84 175 177 184 204 219 222 230 238 235 242 221 239 225 236 216 223 243 224 235 227 226 234 222 213 184 209 187 203 250 182 243 191 213 214 195 210 207 211 252 176 219 246 197 190 202 192 200 204 208 216 214 231 223 193 216 187 217 227 237 224 217 224 241 227 234 230 226 230 216 215 225 231 235 245 250 226 210 215 214 209 206 203
298 298 294 109 88 134 150 174 208 205 211 225 233 237 233 249 248 228 236 249 273 255 228 231 251 192 240 233 238 200 184 208 190 208 224 168 230 160 216 207 194 202 205 210 217 227 185 240 212 180 207 188 199 199 211 201 206 226 237 227 215 229 222 213 215 241 242 238 229 238 235 229 219 234 220 212 208 213 210 217 217 238 225 217 215 210 200 199
327 316 290 94 96 117 145 197 225 217 224 228 226 236 236 235 233 241 243 240 232 229 234 247 226 253 215 241 238 208 195 228 198 209 214 153 224 124 233 195 214 190 206 207 223 217 219 201 256 168 198 186 203 197 211 204 193 202 213 222 213 220 221 231 226 219 229 239 240 244 236 229 217 222 227 224 217 226 247 256 264 262 259 239 217 209 199 197
298 268 262 96 121 136 197 238 242 222 228 240 245 249 236 240 239 232 235 235 247 243 255 235 238 230 239 228 226 231 229 213 218 232 211 206 218 197 209 210 210 208 200 206 216 207 220 197 225 193 185 206 213 199 217 215 209 206 201 213 218 205 209 217 228 218 226 232 231 236 245 243 206 203 216 220 235 232 239 254 257 259 257 249 227 212 202 197
295 282 110 100 169 256 271 257 237 233 245 236 233 232 243 260 259 253 245 233 236 242 223 256 250 257 240 236 248 217 226 227 221 226 209 240 179 245 100 219 210 220 204 209 212 204 223 207 218 225 200 214 218 213 205 224 224 218 205 214 212 224 218 224 225 218 222 231 242 237 250 240 232 201 189 219 231 234 237 240 244 251 262 264 230 218 202 200
280 271 302 307 294 228 245 255 257 246 238 245 262 257 262 259 257 248 245 235 238 224 238 229 232 233 236 246 228 241 232 239 232 226 227 217 238 228 219 158 293 221 216 211 208 210 192 227 205 236 240 224 213 225 214 211 225 227 223 218 209 218 216 226 227 223 239 222 228 236 236 237 217 224 199 206 218 237 233 240 253 262 263 251 227 214 200 196
298 291 298 158 186 220 237 252 252 240 242 242 243 255 252 255 246 240 239 237 233 217 222 231 227 228 242 221 237 236 223 244 227 242 237 237 243 225 246 246 223 239 201 181 216 163 212 195 226 213 219 229 231 220 218 202 218 227 226 217 219 221 220 226 233 228 236 232 224 231 237 221 212 225 197 229 226 228 233 231 246 254 259 257 221 201 196 193
293 269 244 248 212 210 238 257 266 281 285 280 274 261 255 244 242 252 252 240 232 239 231 226 231 221 223 235 236 235 234 237 251 223 241 232 235 224 233 241 223 242 231 321 341 148 216 187 197 215 209 208 206 208 200 199 208 217 228 228 219 221 220 216 224 221 234 228 232 236 237 230 230 202 210 217 236 227 225 235 237 232 252 268 227 180 183 185
299 308 304 261 193 215 243 253 266 269 285 281 282 274 263 262 251 233 234 246 251 244 242 246 222 224 228 217 228 227 229 223 232 232 215 222 221 218 222 214 215 226 185 344 303 225 232 224 201 221 225 223 222 222 212 220 202 219 216 225 225 219 224 227 231 231 232 217 232 235 247 240 225 210 208 213 214 219 222 223 236 247 242 247 216 196 187 188
292 276 295 298 318 271 245 234 242 246 261 300 279 297 283 279 271 258 219 244 224 240 242 232 230 220 216 223 220 226 225 228 220 234 233 237 216 213 159 210 203 218 262 264 240 232 225 237 214 223 238 248 242 228 222 216 226 215 221 220 225 228 222 227 224 229 234 234 235 230 232 236 234 228 206 213 215 230 236 243 246 245 250 251 242 190 194 195
261 265 298 347 304 292 319 285 354 335 307 289 273 275 277 277 276 268 245 235 247 227 234 220 233 232 230 221 222 230 220 227 227 225 225 234 250 236 239 216 232 197 188 238 198 223 230 237 228 230 233 236 240 244 233 227 224 233 223 223 218 222 225 227 231 234 232 234 241 226 220 231 226 235 236 225 216 235 232 233 239 252 257 251 218 205 208 203
271 280 287 314 282 283 305 320 316 306 298 287 282 277 273 273 271 271 283 286 239 234 224 238 220 224 229 231 227 231 225 225 219 226 232 221 218 235 239 226 227 226 212 236 229 210 226 233 244 241 243 235 233 233 236 238 230 224 231 226 225 224 223 226 232 234 235 240 243 243 236 227 229 225 231 242 236 238 243 241 247 247 255 258 238 218 219 209
285 301 289 325 297 286 286 287 287 282 276 277 273 265 275 273 272 272 288 280 262 245 225 241 250 227 224 226 227 231 227 235 251 228 202 228 224 225 241 244 231 207 222 225 228 186 242 220 224 239 246 241 236 235 237 238 235 233 228 232 232 228 228 226 229 231 234 240 240 238 243 241 228 230 231 239 239 239 248 241 246 250 250 253 249 234 227 218
290 294 299 294 293 277 274 257 251 272 278 272 266 260 255 262 279 342 304 283 275 281 287 253 288 326 311 253 227 233 240 251 256 269 292 279 238 213 240 209 236 240 209 215 206 178 216 228 225 248 250 236 227 232 233 238 242 239 231 227 229 231 231 226 227 224 228 229 231 239 240 237 230 226 232 235 235 236 243 244 238 242 245 245 245 243 234 219
278 272 252 256 269 279 281 274 268 263 257 254 278 297 322 308 331 330 322 282 265 272 297 351 331 318 300 263 239 255 348 350 317 299 304 301 282 279 272 283 285 260 234 224 211 218 218 232 236 226 242 245 237 228 230 232 237 239 232 229 230 231 238 240 236 229 229 231 231 228 237 239 234 230 231 227 228 233 235 239 243 244 243 243 241 239 236 225